When you browse on this site, cookies collect data to enhance your experience and personalize the content and advertising you see.
Visit our Privacy Policy to learn more. By continuing to use the site, you agree to this use of cookies and data.
  • In United Kingdom
  • List of Countries
  • For 7 days
  • Water Temperature
  • Satellite Maps
  • Weather Map
  • Weather Widgets
  • user-avatar
    Login

    Hourly Weather Pivdenne

    Today, 17 June, Monday

    Time Temperature Precipitation Wind Pressure Humidity
    00:00 +22°C° 0 mm 4 mps 753 mmHg 78%
    01:00 +21°C° 0 mm 4 mps 753 mmHg 82%
    02:00 +20°C° 0 mm 4 mps 754 mmHg 86%
    03:00 +20°C° 0 mm 4 mps 754 mmHg 86%
    04:00 +20°C° 0 mm 5 mps 754 mmHg 86%
    05:00 +20°C° 0 mm 5 mps 754 mmHg 87%
    06:00 +22°C° 0 mm 5 mps 754 mmHg 79%
    07:00 +23°C° 0 mm 5 mps 755 mmHg 71%
    08:00 +26°C° 0 mm 4 mps 755 mmHg 63%
    09:00 +27°C° 0 mm 4 mps 755 mmHg 56%
    10:00 +28°C° 0 mm 4 mps 755 mmHg 49%
    11:00 +29°C° 0 mm 4 mps 755 mmHg 42%
    12:00 +30°C° 0 mm 4 mps 755 mmHg 39%
    13:00 +30°C° 0 mm 4 mps 755 mmHg 37%
    14:00 +32°C° 0 mm 4 mps 755 mmHg 35%
    15:00 +30°C° 0 mm 4 mps 755 mmHg 37%
    16:00 +30°C° 0 mm 5 mps 754 mmHg 39%
    17:00 +29°C° 0 mm 5 mps 754 mmHg 40%
    18:00 +28°C° 0 mm 4 mps 755 mmHg 46%
    19:00 +26°C° 0 mm 4 mps 755 mmHg 51%
    20:00 +24°C° 0 mm 3 mps 755 mmHg 56%
    21:00 +24°C° 0 mm 3 mps 755 mmHg 58%
    22:00 +22°C° 0 mm 3 mps 755 mmHg 59%
    23:00 +21°C° 0 mm 3 mps 755 mmHg 60%

    Tomorrow, 18 June, Tuesday

    Time Temperature Precipitation Wind Pressure Humidity
    00:00 +21°C° 0 mm 3 mps 755 mmHg 62%
    01:00 +20°C° 0 mm 3 mps 755 mmHg 64%
    02:00 +20°C° 0 mm 3 mps 755 mmHg 66%
    03:00 +20°C° 0 mm 3 mps 755 mmHg 68%
    04:00 +20°C° 0 mm 3 mps 755 mmHg 70%
    05:00 +20°C° 0 mm 3 mps 756 mmHg 72%
    06:00 +23°C° 0 mm 2 mps 756 mmHg 65%
    07:00 +24°C° 0 mm 2 mps 756 mmHg 59%
    08:00 +26°C° 0 mm 2 mps 756 mmHg 53%
    09:00 +27°C° 0 mm 2 mps 756 mmHg 49%
    10:00 +28°C° 0 mm 3 mps 756 mmHg 46%
    11:00 +29°C° 0 mm 3 mps 756 mmHg 43%
    12:00 +30°C° 0 mm 3 mps 755 mmHg 42%
    13:00 +30°C° 0 mm 3 mps 755 mmHg 41%
    14:00 +31°C° 0 mm 2 mps 754 mmHg 40%
    15:00 +31°C° 0 mm 2 mps 754 mmHg 41%
    16:00 +31°C° 0 mm 2 mps 754 mmHg 42%
    17:00 +30°C° 0 mm 2 mps 754 mmHg 43%
    18:00 +29°C° 0 mm 2 mps 754 mmHg 47%
    19:00 +28°C° 0 mm 1 mps 754 mmHg 52%
    20:00 +26°C° 0 mm 1 mps 754 mmHg 56%
    21:00 +25°C° 0 mm 1 mps 754 mmHg 59%
    22:00 +25°C° 0 mm 1 mps 754 mmHg 61%
    23:00 +24°C° 0 mm 1 mps 754 mmHg 64%

    Day after tomorrow, 19 June, Wednesday

    Time Temperature Precipitation Wind Pressure Humidity
    00:00 +23°C° 0 mm 2 mps 754 mmHg 67%
    01:00 +23°C° 0 mm 2 mps 754 mmHg 69%
    02:00 +21°C° 0 mm 2 mps 754 mmHg 72%
    03:00 +21°C° 0 mm 2 mps 754 mmHg 75%
    04:00 +23°C° 0 mm 2 mps 754 mmHg 79%
    05:00 +23°C° 0 mm 2 mps 754 mmHg 82%
    06:00 +24°C° 0 mm 2 mps 754 mmHg 75%
    07:00 +26°C° 0 mm 2 mps 754 mmHg 68%
    08:00 +28°C° 0 mm 2 mps 754 mmHg 61%
    09:00 +29°C° 0.1 mm 2 mps 754 mmHg 57%
    10:00 +29°C° 0.1 mm 2 mps 754 mmHg 54%
    11:00 +30°C° 0.1 mm 2 mps 754 mmHg 51%
    12:00 +31°C° 0.3 mm 2 mps 754 mmHg 50%
    13:00 +31°C° 0.3 mm 2 mps 754 mmHg 49%
    14:00 +31°C° 0.3 mm 2 mps 753 mmHg 48%
    15:00 +31°C° 0 mm 3 mps 753 mmHg 46%
    16:00 +31°C° 0 mm 3 mps 753 mmHg 44%
    17:00 +33°C° 0 mm 3 mps 753 mmHg 42%
    18:00 +30°C° 0 mm 3 mps 753 mmHg 48%
    19:00 +28°C° 0 mm 4 mps 753 mmHg 54%
    20:00 +27°C° 0 mm 4 mps 753 mmHg 59%
    21:00 +26°C° 0 mm 4 mps 754 mmHg 63%
    22:00 +25°C° 0 mm 5 mps 754 mmHg 67%
    23:00 +23°C° 0 mm 5 mps 754 mmHg 71%

    20 June, Thursday

    Time Temperature Precipitation Wind Pressure Humidity
    00:00 +23°C° 0 mm 5 mps 754 mmHg 72%
    01:00 +22°C° 0 mm 5 mps 754 mmHg 74%
    02:00 +22°C° 0 mm 5 mps 754 mmHg 75%
    03:00 +21°C° 0 mm 5 mps 754 mmHg 76%
    04:00 +21°C° 0 mm 5 mps 754 mmHg 77%
    05:00 +21°C° 0 mm 5 mps 754 mmHg 78%
    06:00 +23°C° 0 mm 5 mps 755 mmHg 72%
    07:00 +24°C° 0 mm 6 mps 755 mmHg 66%
    08:00 +27°C° 0 mm 6 mps 755 mmHg 59%
    09:00 +28°C° 0 mm 6 mps 755 mmHg 55%
    10:00 +29°C° 0 mm 6 mps 755 mmHg 50%
    11:00 +30°C° 0 mm 5 mps 755 mmHg 45%
    12:00 +32°C° 0 mm 5 mps 755 mmHg 43%
    13:00 +32°C° 0 mm 5 mps 755 mmHg 41%
    14:00 +32°C° 0 mm 5 mps 754 mmHg 39%
    15:00 +32°C° 0 mm 5 mps 754 mmHg 40%
    16:00 +32°C° 0 mm 5 mps 754 mmHg 41%
    17:00 +32°C° 0 mm 5 mps 754 mmHg 42%
    18:00 +29°C° 0 mm 5 mps 754 mmHg 48%
    19:00 +27°C° 0 mm 5 mps 755 mmHg 55%
    20:00 +26°C° 0 mm 4 mps 755 mmHg 62%
    21:00 +25°C° 0 mm 4 mps 755 mmHg 63%
    22:00 +23°C° 0 mm 4 mps 755 mmHg 65%
    23:00 +23°C° 0 mm 4 mps 755 mmHg 66%

    21 June, Friday

    Time Temperature Precipitation Wind Pressure Humidity
    00:00 +22°C° 0 mm 4 mps 755 mmHg 69%
    01:00 +21°C° 0 mm 4 mps 756 mmHg 72%
    02:00 +21°C° 0 mm 4 mps 756 mmHg 75%
    03:00 +21°C° 0 mm 4 mps 756 mmHg 76%
    04:00 +21°C° 0 mm 4 mps 756 mmHg 76%
    05:00 +21°C° 0 mm 4 mps 756 mmHg 76%
    06:00 +23°C° 0 mm 4 mps 756 mmHg 69%
    07:00 +26°C° 0 mm 5 mps 756 mmHg 62%
    08:00 +28°C° 0 mm 5 mps 756 mmHg 55%
    09:00 +29°C° 0 mm 5 mps 756 mmHg 50%
    10:00 +30°C° 0 mm 5 mps 756 mmHg 46%
    11:00 +32°C° 0 mm 5 mps 756 mmHg 42%
    12:00 +32°C° 0 mm 5 mps 756 mmHg 40%
    13:00 +33°C° 0 mm 4 mps 756 mmHg 38%
    14:00 +33°C° 0 mm 4 mps 756 mmHg 36%
    15:00 +33°C° 0 mm 4 mps 755 mmHg 38%
    16:00 +32°C° 0 mm 5 mps 755 mmHg 40%
    17:00 +32°C° 0 mm 5 mps 755 mmHg 42%
    18:00 +29°C° 0 mm 4 mps 755 mmHg 47%
    19:00 +28°C° 0 mm 4 mps 755 mmHg 53%
    20:00 +26°C° 0 mm 4 mps 755 mmHg 58%
    21:00 +25°C° 0 mm 4 mps 756 mmHg 58%
    22:00 +25°C° 0 mm 4 mps 756 mmHg 59%
    23:00 +23°C° 0 mm 4 mps 756 mmHg 60%

    22 June, Saturday

    Time Temperature Precipitation Wind Pressure Humidity
    00:00 +22°C° 0 mm 4 mps 756 mmHg 64%
    01:00 +22°C° 0 mm 4 mps 756 mmHg 68%
    02:00 +21°C° 0 mm 4 mps 756 mmHg 72%
    03:00 +21°C° 0 mm 4 mps 756 mmHg 72%
    04:00 +22°C° 0 mm 4 mps 756 mmHg 73%
    05:00 +22°C° 0 mm 4 mps 756 mmHg 74%
    06:00 +25°C° 0 mm 4 mps 756 mmHg 67%
    07:00 +27°C° 0 mm 4 mps 756 mmHg 60%
    08:00 +29°C° 0 mm 4 mps 756 mmHg 53%
    09:00 +30°C° 0 mm 4 mps 756 mmHg 47%
    10:00 +32°C° 0 mm 4 mps 756 mmHg 42%
    11:00 +34°C° 0 mm 4 mps 756 mmHg 37%
    12:00 +34°C° 0 mm 4 mps 756 mmHg 35%
    13:00 +35°C° 0 mm 4 mps 756 mmHg 33%
    14:00 +35°C° 0 mm 4 mps 755 mmHg 31%
    15:00 +35°C° 0 mm 4 mps 755 mmHg 32%
    16:00 +35°C° 0 mm 4 mps 755 mmHg 34%
    17:00 +34°C° 0 mm 5 mps 755 mmHg 35%
    18:00 +32°C° 0 mm 5 mps 755 mmHg 41%
    19:00 +30°C° 0 mm 4 mps 755 mmHg 46%
    20:00 +28°C° 0 mm 4 mps 755 mmHg 51%
    21:00 +27°C° 0 mm 4 mps 755 mmHg 53%
    22:00 +27°C° 0 mm 4 mps 755 mmHg 54%
    23:00 +26°C° 0 mm 4 mps 756 mmHg 56%
    Show more